GW5216 Weather Reports


time (UTC)temp
C
wind
direction
speed
KPH
gust
KPH
rain 1hr
cm
rain 24hr
cm
rain mn
cm
humidity
%
barometer
mb
20260506235708 13 150 0.0 0.0 0.00 0.13 0.13 70 1021.5
20260506235203 12 180 1.6 1.6 0.00 0.13 0.13 73 1021.6
20260506234700 12 157 1.6 3.2 0.00 0.13 0.13 74 1021.5
20260506234157 12 180 1.6 3.2 0.00 0.13 0.13 76 1021.4
20260506233654 12 270 0.0 0.0 0.00 0.13 0.13 74 1021.4
20260506233151 12 157 0.0 0.0 0.00 0.13 0.13 73 1021.4
20260506232647 11 157 0.0 0.0 0.00 0.13 0.13 74 1021.4
20260506232142 11 157 0.0 0.0 0.00 0.13 0.13 77 1021.4
20260506231640 11 157 0.0 0.0 0.00 0.13 0.13 77 1021.4
20260506231139 11 157 0.0 0.0 0.00 0.13 0.13 76 1021.2
20260506230635 11 157 0.0 0.0 0.00 0.13 0.13 75 1021.3
20260506230132 11 157 0.0 0.0 0.00 0.13 0.13 74 1021.2
20260506225628 11 157 0.0 0.0 0.00 0.13 0.13 73 1021.3
20260506225125 11 157 0.0 0.0 0.00 0.13 0.13 73 1021.4
20260506224622 11 157 0.0 0.0 0.00 0.13 0.13 74 1021.3
20260506224118 11 157 0.0 0.0 0.00 0.13 0.13 72 1021.3
20260506223614 12 157 0.0 0.0 0.00 0.13 0.13 70 1021.4
20260506223110 12 157 1.6 3.2 0.00 0.13 0.13 75 1021.4
20260506222608 12 209 0.0 3.2 0.00 0.13 0.13 78 1021.4
20260506222104 12 67 0.0 0.0 0.00 0.13 0.13 81 1021.4
20260506221602 12 112 0.0 0.0 0.00 0.13 0.13 84 1021.4
20260506221100 11 112 1.6 4.8 0.00 0.13 0.13 84 1021.3
20260506220555 11 185 0.0 0.0 0.00 0.13 0.13 84 1021.2
20260506220051 10 270 0.0 0.0 0.00 0.13 0.13 84 1021.2
20260506215548 10 157 0.0 0.0 0.00 0.13 0.13 85 1021.0
20260506215043 10 157 0.0 0.0 0.00 0.13 0.13 87 1021.0
20260506214541 10 157 0.0 0.0 0.00 0.13 0.13 89 1021.0
20260506214038 10 157 0.0 0.0 0.00 0.13 0.13 90 1021.0
20260506213536 10 157 0.0 0.0 0.00 0.13 0.13 90 1020.9
20260506213033 10 157 0.0 0.0 0.00 0.13 0.13 92 1021.0
20260506212529 10 157 0.0 0.0 0.00 0.13 0.13 93 1021.0
20260506212024 10 157 0.0 0.0 0.00 0.13 0.13 93 1020.9
20260506211521 9 157 0.0 0.0 0.00 0.13 0.13 93 1020.9
20260506211018 9 157 0.0 0.0 0.00 0.13 0.13 93 1020.9
20260506210514 9 157 0.0 0.0 0.00 0.13 0.13 93 1020.9
20260506210011 9 157 0.0 0.0 0.00 0.13 0.13 92 1020.9
20260506205508 10 157 0.0 0.0 0.00 0.13 0.13 90 1021.0
20260506205003 10 157 0.0 0.0 0.00 0.13 0.13 91 1020.8
20260506204502 10 157 0.0 0.0 0.00 0.13 0.13 92 1020.8
20260506203958 10 112 0.0 0.0 0.00 0.13 0.13 92 1020.8
20260506203456 10 112 0.0 0.0 0.00 0.13 0.13 92 1020.7
20260506202953 10 112 0.0 0.0 0.00 0.13 0.13 92 1020.7
20260506202450 10 143 0.0 1.6 0.00 0.13 0.13 95 1020.6
20260506201946 9 270 0.0 0.0 0.00 0.08 0.08 94 1020.6
20260506201444 9 270 0.0 3.2 0.00 0.08 0.08 92 1020.5
20260506200940 10 157 0.0 0.0 0.00 0.08 0.08 92 1020.6
20260506200437 10 270 0.0 0.0 0.00 0.08 0.08 90 1020.4
20260506195933 10 296 0.0 0.0 0.00 0.08 0.08 87 1020.5
20260506195430 11 360 0.0 0.0 0.00 0.08 0.08 82 1020.4
20260506194927 11 112 0.0 0.0 0.00 0.03 0.03 78 1020.4
20260506194424 10 112 0.0 0.0 0.00 0.03 0.03 76 1020.4
20260506193921 10 337 0.0 0.0 0.00 0.03 0.03 80 1020.3
20260506193418 10 337 0.0 0.0 0.00 0.03 0.03 82 1020.2
20260506192914 10 270 0.0 0.0 0.00 0.03 0.03 82 1020.1
20260506192411 10 196 3.2 4.8 0.00 0.03 0.03 84 1020.1
20260506191908 10 157 0.0 0.0 0.00 0.03 0.03 87 1020.0
20260506191404 10 157 0.0 0.0 0.00 0.03 0.03 86 1020.0
20260506190902 10 157 0.0 0.0 0.00 0.03 0.03 86 1020.1
20260506190358 10 157 0.0 1.6 0.00 0.03 0.03 87 1019.9
20260506185855 10 157 0.0 0.0 0.00 0.03 0.03 86 1020.0
20260506185352 11 157 0.0 0.0 0.00 0.03 0.03 83 1020.0
20260506184849 11 157 0.0 0.0 0.00 0.00 0.00 81 1020.1
20260506184346 11 172 1.6 4.8 0.00 0.00 0.00 78 1020.2
20260506183843 10 157 0.0 0.0 0.00 0.00 0.00 79 1020.1
20260506183338 10 238 1.6 4.8 0.00 0.00 0.00 80 1020.0
20260506182836 10 225 0.0 0.0 0.00 0.00 0.00 80 1020.2
20260506182333 10 182 1.6 3.2 0.00 0.00 0.00 81 1020.2
20260506181831 10 180 0.0 3.2 0.00 0.00 0.00 81 1020.0
20260506181328 10 180 0.0 0.0 0.00 0.00 0.00 81 1020.2
20260506180825 10 180 0.0 0.0 0.00 0.00 0.00 82 1020.0
20260506180321 9 180 0.0 0.0 0.00 0.00 0.00 82 1020.1
20260506175817 9 180 1.6 6.4 0.00 0.00 0.00 82 1020.1
20260506175315 9 180 0.0 0.0 0.00 0.00 0.00 84 1020.1
20260506174812 9 180 0.0 0.0 0.00 0.00 0.00 84 1020.1
20260506174309 9 157 0.0 1.6 0.00 0.00 0.00 84 1020.1
20260506173806 9 157 0.0 0.0 0.00 0.00 0.00 86 1020.2
20260506173303 8 180 0.0 0.0 0.00 0.00 0.00 87 1020.1
20260506172800 8 157 0.0 0.0 0.00 0.00 0.00 88 1020.0
20260506172256 8 202 1.6 3.2 0.00 0.00 0.00 89 1020.1
20260506171754 8 202 0.0 0.0 0.00 0.00 0.00 91 1020.0
20260506171251 8 259 0.0 1.6 0.00 0.00 0.00 91 1020.0
20260506170749 8 270 0.0 0.0 0.00 0.00 0.00 91 1020.0
20260506170245 8 270 0.0 0.0 0.00 0.00 0.00 90 1020.0
20260506165744 7 202 0.0 0.0 0.00 0.00 0.00 90 1020.0
20260506165240 7 202 0.0 0.0 0.00 0.00 0.00 89 1020.1
20260506164738 7 247 0.0 0.0 0.00 0.00 0.00 88 1020.0
20260506164234 7 315 0.0 0.0 0.00 0.00 0.00 88 1020.0
20260506163731 7 315 0.0 0.0 0.00 0.00 0.00 87 1019.9
20260506163226 7 251 0.0 0.0 0.00 0.00 0.00 88 1019.9
20260506162722 7 180 0.0 0.0 0.00 0.00 0.00 88 1020.0
20260506162220 8 180 0.0 0.0 0.00 0.00 0.00 89 1019.8
20260506161717 7 180 0.0 1.6 0.00 0.00 0.00 90 1019.4
20260506161214 7 225 0.0 0.0 0.00 0.00 0.00 95 1019.1
20260506153005 7 225 0.0 0.0 0.00 0.00 0.00 95 1019.1
20260506152502 7 225 0.0 0.0 0.00 0.00 0.00 95 1019.1
20260506152000 7 225 0.0 0.0 0.00 0.00 0.00 95 1019.1
20260506151457 7 225 0.0 0.0 0.00 0.00 0.00 95 1019.1
20260506150954 7 225 0.0 0.0 0.00 0.00 0.00 96 1019.1
20260506150450 6 225 0.0 0.0 0.00 0.00 0.00 95 1019.0
20260506145947 6 225 0.0 0.0 0.00 0.00 0.00 94 1019.0
20260506145444 6 221 0.0 0.0 0.00 0.00 0.00 95 1019.0
20260506144942 6 247 0.0 0.0 0.00 0.00 0.00 96 1019.1
20260506144438 6 247 0.0 0.0 0.00 0.00 0.00 96 1019.0
20260506143936 6 247 0.0 0.0 0.00 0.00 0.00 96 1018.9
20260506143433 6 247 0.0 0.0 0.00 0.00 0.00 96 1018.9
20260506142931 6 270 0.0 0.0 0.00 0.00 0.00 96 1018.9
20260506142429 6 270 0.0 0.0 0.00 0.00 0.00 95 1018.8
20260506141927 6 270 0.0 0.0 0.00 0.00 0.00 95 1018.7
20260506141424 6 270 0.0 0.0 0.00 0.00 0.00 96 1018.8
20260506140923 6 270 0.0 0.0 0.00 0.00 0.00 96 1018.8
20260506140419 6 270 0.0 0.0 0.00 0.00 0.00 95 1018.8
20260506135916 6 270 0.0 0.0 0.00 0.00 0.00 96 1018.7
20260506135413 6 270 0.0 0.0 0.00 0.00 0.00 96 1018.6
20260506134909 6 270 0.0 0.0 0.00 0.00 0.00 96 1018.6
20260506134406 6 270 0.0 0.0 0.00 0.00 0.00 96 1018.5
20260506133903 6 247 0.0 0.0 0.00 0.00 0.00 95 1018.6
20260506133359 6 254 0.0 0.0 0.00 0.00 0.00 95 1018.6
20260506132856 6 247 0.0 0.0 0.00 0.00 0.00 94 1018.5
20260506132353 6 247 0.0 0.0 0.00 0.00 0.00 95 1018.5
20260506131851 6 247 0.0 0.0 0.00 0.00 0.00 95 1018.4
20260506131347 6 247 0.0 0.0 0.00 0.00 0.00 95 1018.4
20260506130845 6 247 0.0 0.0 0.00 0.00 0.00 94 1018.4
20260506130341 6 247 0.0 0.0 0.00 0.00 0.00 94 1018.4
20260506125839 6 247 0.0 0.0 0.00 0.00 0.00 94 1018.4
20260506125337 6 257 0.0 0.0 0.00 0.00 0.00 94 1018.3
20260506124835 6 294 1.6 3.2 0.00 0.00 0.00 93 1018.2
20260506124332 6 232 0.0 0.0 0.00 0.00 0.00 94 1018.3
20260506123829 6 247 0.0 0.0 0.00 0.00 0.00 93 1018.3
20260506123328 6 292 0.0 0.0 0.00 0.00 0.00 93 1018.2
20260506122824 6 292 0.0 0.0 0.00 0.00 0.00 92 1018.2
20260506122321 6 270 0.0 0.0 0.00 0.00 0.00 93 1018.0
20260506121819 7 225 0.0 0.0 0.00 0.00 0.00 93 1018.1
20260506121316 7 180 0.0 0.0 0.00 0.00 0.00 93 1018.0
20260506120813 7 202 0.0 1.6 0.00 0.00 0.00 91 1017.9
20260506120311 7 247 0.0 0.0 0.00 0.00 0.00 92 1017.9
20260506115808 7 270 0.0 0.0 0.00 0.00 0.00 91 1017.9
20260506115307 7 225 0.0 0.0 0.00 0.00 0.00 91 1017.9
20260506114804 7 225 0.0 0.0 0.00 0.00 0.00 91 1017.8
20260506114302 7 212 1.6 4.8 0.00 0.00 0.00 90 1017.8
20260506113800 7 193 0.0 3.2 0.00 0.00 0.00 90 1017.8
20260506113258 7 337 0.0 0.0 0.00 0.00 0.00 90 1017.8
20260506112754 7 337 0.0 0.0 0.00 0.00 0.00 90 1017.8
20260506112251 7 245 0.0 0.0 0.00 0.00 0.00 90 1017.7
20260506111748 7 237 0.0 1.6 0.00 0.00 0.00 90 1017.8
20260506111246 7 247 0.0 0.0 0.00 0.00 0.00 89 1017.6
20260506110743 7 247 0.0 0.0 0.00 0.00 0.00 89 1017.5
20260506110241 7 247 0.0 0.0 0.00 0.00 0.00 89 1017.7
20260506105737 7 247 0.0 0.0 0.00 0.00 0.00 90 1017.5
20260506105234 7 247 0.0 0.0 0.00 0.00 0.00 90 1017.5
20260506104732 7 247 0.0 0.0 0.00 0.00 0.00 89 1017.5
20260506104229 7 247 0.0 0.0 0.00 0.00 0.00 89 1017.5
20260506103726 7 247 0.0 0.0 0.00 0.00 0.00 90 1017.5
20260506103223 7 247 0.0 0.0 0.00 0.00 0.00 88 1017.5
20260506102721 7 247 0.0 0.0 0.00 0.00 0.00 89 1017.5
20260506102219 7 247 0.0 0.0 0.00 0.00 0.00 89 1017.5
20260506101715 7 247 0.0 1.6 0.00 0.00 0.00 89 1017.4
20260506101212 7 247 0.0 0.0 0.00 0.00 0.00 89 1017.5
20260506100710 7 247 0.0 0.0 0.00 0.00 0.00 88 1017.4
20260506100208 7 247 0.0 0.0 0.00 0.00 0.00 88 1017.4
20260506095706 7 225 0.0 0.0 0.00 0.00 0.00 88 1017.4
20260506095203 7 225 0.0 0.0 0.00 0.00 0.00 89 1017.4
20260506094700 7 270 0.0 0.0 0.00 0.00 0.00 89 1017.2
20260506094158 7 270 0.0 0.0 0.00 0.00 0.00 88 1017.2
20260506093657 7 270 0.0 0.0 0.00 0.00 0.00 88 1017.0
20260506093153 7 270 0.0 0.0 0.00 0.00 0.00 88 1017.1
20260506092651 7 270 0.0 0.0 0.00 0.00 0.00 88 1017.0
20260506092148 7 270 0.0 0.0 0.00 0.00 0.00 89 1017.0
20260506091646 7 270 0.0 0.0 0.00 0.00 0.00 88 1017.0
20260506091143 7 270 0.0 0.0 0.00 0.00 0.00 88 1017.0
20260506090641 7 270 0.0 0.0 0.00 0.00 0.00 88 1016.9
20260506090137 7 270 0.0 0.0 0.00 0.00 0.00 88 1017.0
20260506085634 7 270 0.0 0.0 0.00 0.00 0.00 86 1017.0
20260506085130 7 247 0.0 0.0 0.00 0.00 0.00 87 1017.0
20260506084627 7 247 0.0 1.6 0.00 0.00 0.00 86 1016.9
20260506084124 7 247 0.0 0.0 0.00 0.00 0.00 87 1017.0
20260506083621 7 247 0.0 0.0 0.00 0.00 0.00 86 1016.9
20260506083118 7 294 0.0 0.0 0.00 0.00 0.00 87 1016.8
20260506082615 7 315 0.0 1.6 0.00 0.00 0.00 87 1016.9
20260506082110 7 315 0.0 0.0 0.00 0.00 0.00 86 1016.8
20260506081609 7 337 0.0 0.0 0.00 0.00 0.00 86 1016.8
20260506081106 7 337 0.0 0.0 0.00 0.00 0.00 87 1016.9
20260506080604 7 337 0.0 0.0 0.00 0.00 0.00 86 1016.8
20260506073044 7 247 0.0 0.0 0.00 0.00 0.00 87 1016.9
20260506072541 7 261 0.0 1.6 0.00 0.00 0.00 88 1016.8
20260506072039 7 292 0.0 0.0 0.00 0.00 0.00 88 1016.8
20260506071536 7 292 0.0 0.0 0.00 0.00 0.00 88 1016.8
20260506071034 7 292 0.0 0.0 0.00 0.00 0.00 87 1016.8
20260506070531 6 292 0.0 0.0 0.00 0.00 0.00 87 1016.8
20260506062508 6 292 0.0 0.0 0.00 0.00 0.00 86 1016.5
20260506062005 6 292 0.0 0.0 0.00 0.00 0.00 85 1016.5
20260506061500 6 292 0.0 0.0 0.00 0.00 0.00 86 1016.6
20260506060958 7 292 0.0 0.0 0.00 0.00 0.00 86 1016.5
20260506060456 7 292 0.0 0.0 0.00 0.00 0.00 85 1016.5
20260506050925 8 291 0.0 4.8 0.00 0.00 0.00 79 1016.6
20260506050423 8 270 0.0 1.6 0.00 0.00 0.00 78 1016.5
20260506044913 8 247 0.0 0.0 0.00 0.00 0.00 75 1016.4
20260506044411 8 247 0.0 0.0 0.00 0.00 0.00 74 1016.3
20260506043908 9 247 0.0 0.0 0.00 0.00 0.00 74 1016.3
20260506043406 9 247 0.0 0.0 0.00 0.00 0.00 72 1016.2
20260506042903 9 270 0.0 3.2 0.00 0.00 0.00 71 1016.2
20260506042403 10 270 0.0 0.0 0.00 0.00 0.00 71 1016.2
20260506041900 10 292 0.0 0.0 0.00 0.00 0.00 70 1016.1
20260506041357 10 303 0.0 0.0 0.00 0.00 0.00 70 1016.0
20260506040855 10 245 0.0 1.6 0.00 0.00 0.00 70 1016.0
20260506040352 10 247 0.0 0.0 0.00 0.00 0.00 69 1016.0
20260506035848 10 247 0.0 0.0 0.00 0.00 0.00 69 1016.1
20260506035345 11 247 0.0 0.0 0.00 0.00 0.00 66 1015.9
20260506034843 11 222 1.6 4.8 0.00 0.00 0.00 66 1015.8
20260506034340 11 180 0.0 0.0 0.00 0.00 0.00 64 1015.7
20260506033836 12 190 0.0 0.0 0.00 0.00 0.00 62 1015.8
20260506033334 12 180 4.8 9.7 0.00 0.00 0.00 61 1015.9
20260506032830 12 158 3.2 8.0 0.00 0.00 0.00 61 1015.9
20260506032327 12 185 1.6 3.2 0.00 0.00 0.00 60 1015.7
20260506031824 12 157 0.0 0.0 0.00 0.00 0.00 61 1015.8
20260506031322 12 232 0.0 4.8 0.00 0.00 0.00 59 1015.8
20260506030819 13 357 1.6 4.8 0.00 0.00 0.00 58 1015.7
20260506030317 13 219 0.0 3.2 0.00 0.00 0.00 58 1015.6
20260506025813 13 182 1.6 4.8 0.00 0.00 0.00 56 1015.6
20260506025310 13 189 0.0 1.6 0.00 0.00 0.00 57 1015.6
20260506024807 13 220 1.6 6.4 0.00 0.00 0.00 56 1015.4
20260506024303 13 230 0.0 3.2 0.00 0.00 0.00 57 1015.4
20260506023800 13 163 0.0 3.2 0.00 0.00 0.00 56 1015.4
20260506023257 13 165 1.6 6.4 0.00 0.00 0.00 55 1015.3
20260506022753 13 209 1.6 8.0 0.00 0.00 0.00 54 1015.2
20260506022251 14 246 1.6 4.8 0.00 0.00 0.00 54 1015.2
20260506021749 14 177 3.2 6.4 0.00 0.00 0.00 53 1015.1
20260506021246 14 190 3.2 9.7 0.00 0.00 0.00 53 1015.1
20260506020742 15 171 1.6 4.8 0.00 0.00 0.00 53 1014.9
20260506020241 15 168 1.6 4.8 0.00 0.00 0.00 53 1014.9
20260506015738 15 187 3.2 9.7 0.00 0.00 0.00 53 1014.9
20260506015235 15 165 3.2 8.0 0.00 0.00 0.00 52 1014.9
20260506014732 15 142 1.6 4.8 0.00 0.00 0.00 51 1014.9
20260506014228 15 202 3.2 8.0 0.00 0.00 0.00 50 1014.9
20260506013726 15 201 3.2 4.8 0.00 0.00 0.00 48 1014.8
20260506013223 16 188 3.2 9.7 0.00 0.00 0.00 48 1014.8
20260506012719 16 129 3.2 4.8 0.00 0.00 0.00 48 1014.8
20260506012216 16 348 3.2 6.4 0.00 0.00 0.00 48 1014.7
20260506011713 16 172 0.0 1.6 0.00 0.00 0.00 47 1014.5
20260506011209 16 178 0.0 4.8 0.00 0.00 0.00 47 1014.4
20260506010708 16 193 4.8 11.3 0.00 0.00 0.00 47 1014.5
20260506010205 16 141 1.6 4.8 0.00 0.00 0.00 47 1014.5
20260506005702 16 203 1.6 6.4 0.00 0.00 0.00 46 1014.5
20260506005159 16 169 3.2 8.0 0.00 0.00 0.00 45 1014.6
20260506004655 16 163 4.8 6.4 0.00 0.00 0.00 44 1014.6
20260506004152 17 218 1.6 3.2 0.00 0.00 0.00 44 1014.7
20260506003648 17 79 3.2 8.0 0.00 0.00 0.00 44 1014.6
20260506003145 17 192 3.2 8.0 0.00 0.00 0.00 44 1014.5
20260506002641 17 203 4.8 9.7 0.00 0.00 0.00 44 1014.5
20260506002137 17 199 1.6 6.4 0.00 0.00 0.00 43 1014.5
20260506001633 17 187 6.4 12.9 0.00 0.00 0.00 43 1014.5
20260506001131 17 181 4.8 12.9 0.00 0.00 0.00 44 1014.5
20260506000628 17 217 3.2 8.0 0.00 0.00 0.00 44 1014.4
20260506000125 17 202 1.6 3.2 0.00 0.00 0.00 42 1014.3